www.pogodaiklimat.ru

Погода и климат >> Архив погоды >> Боливия >> Сан-Борха


ПОГОДА в Сан-Борхе

  • Прогноз погоды в Сан-Борхе
  • Монитор погоды в Сан-Борхе

АРХИВ ПОГОДЫ в Сан-Борхе

Время (UTC), дата Ветер
(напр.,м/с)
 
Видим.   Явления Облачность Т
(С)
Тd
(С)
f
(%)
Тe
(С)
Тes
(С)
Комфортность P
(гПа)
Po
(гПа)
Тmin
(С)
Tmax
(С)
R
(мм)
R24
(мм)
S
(см)
12 8.09 штиль 0 7000 м дым 10/0 2000 м
[Ac trans Cs]
+24.6 +21.2 81 +31 +33 очень
душно
1014.7 992.2 +22.5
15 8.09 СЗ 2 7000 м дым 9/0 2000 м
[Ac trans Ci fib]
+33.1 +22.1 53 +42 +53 опасность
перегрева
1014.3 992.1
18 8.09 З 6 7000 м гроза без осадков туман 9/4 600 м
[Cb cap Ci fib]
+31.7 +22.6 59 +41 +45 опасность
перегрева
1012.1 989.9
21 8.09 З 4 8000 м дым туман 8/1 750 м
[Cb cap Ci fib]
+33.8 +20.9 47 +41 +43 опасность
перегрева
1009.8 987.6 +35.7
12 9.09 штиль 0 6000 м дым 6/0
[Ci fib]
+25.5 +24.0 91 +35 +38 очень
душно
1013.5 990.8 +20.3
15 9.09 СЗ 5 7000 м дым 8/0
[Ci]
+33.3 +22.2 52 +42 +49 опасность
перегрева
1014.4 991.6
18 9.09 З 4 8000 м дым 9/3 600 м
[Cu med, cong Ci sp]
+33.8 +22.4 51 +43 +49 опасность
перегрева
1009.7 987.6
21 9.09 З 4 8000 м дым 8/3 600 м
[Cu med, cong Ci fib]
+33.1 +22.0 52 +42 +43 опасность
перегрева
1007.1 984.8 +34.8
12 10.09 штиль 0 7000 м дым 8/0
[Ci fib]
+25.6 +22.2 82 +33 +37 очень
душно
1010.3 987.9 +21.8
15 10.09 СЗ 3 7000 м дым 1/1 500 м
[Cu hum]
+33.7 +22.7 53 +44 +56 опасность
перегрева
1010.1 987.7
18 10.09 СЗ 5 8000 м дым 6/6 600 м
[Cu med, cong]
+36.7 +21.3 41 +44 +47 опасность
перегрева
1008.6 986.0
21 10.09 З 5 8000 м гроза без осадков туман 8/3 600 м
[Cb cap Ci fib]
+35.0 +22.6 49 +45 +45 опасность
перегрева
1006.8 984.2 +37.0
12 11.09 штиль 0 7000 м дым 4/0
[Ci fib]
+26.8 +25.2 91 +39 +42 очень
душно
1011.1 988.4 +22.0
15 11.09 З 8 6000 м дым 1/1 600 м
[Cu hum]
+33.1 +22.6 54 +43 +46 опасность
перегрева
1011.6 989.0
18 11.09 СЗ 6 6000 м осадки на расстоянии туман 8/8 600 м
[Cb cap]
+34.8 +23.2 51 +45 +47 опасность
перегрева
1008.1 985.1
21 11.09 СЗ 4 8000 м осадки на расстоянии 6/6 600 м
[Cb cap]
+34.9 +21.9 47 +43 +44 опасность
перегрева
1006.2 982.5 +35.2
12 12.09 штиль 0 8000 м дым 9/5 750 м
[Sc Ac As]
+23.4 +22.8 96 +33 +33 очень
душно
1013.1 990.4 +21.9
15 12.09 В 5 8000 м слаб. морось 9/6 450 м
[Sc diur, vesp Ac As]
+24.5 +23.3 93 +33 +35 очень
душно
1015.4 992.7
18 12.09 ЮВ 6 8000 м дым 9/6 500 м
[Sc Ac As]
+23.8 +21.9 89 +31 +32 очень
душно
1014.1 991.3
21 12.09 ЮВ 8 8000 м дым 8/3 450 м
[Sc Ac trans]
+23.2 +19.9 82 +30 +30 очень
душно
1012.6 989.9 +25.3
12 13.09 ЮВ 3 50 км 9/0 2000 м
[Ac As]
+20.8 +14.0 65 +24 +25 комфорт 1018.2 995.5 +18.3
15 13.09 В 8 8000 м дым 9/0 2000 м
[Ac trans]
+24.1 +13.3 51 +26 +28 жарко 1019.3 996.3
18 13.09 В 2 8000 м дым 8/0 2000 м
[Ac trans]
+27.2 +14.9 47 +30 +39 душно 1015.4 992.7
21 13.09 Ю 2 8000 м дым 4/0 2000 м
[Ac trans]
+28.8 +16.9 49 +33 +35 очень
душно
1012.3 989.5 +29.6
12 14.09 штиль 0 8000 м дым 9/0 2000 м
[Ac trans]
+21.2 +20.2 94 +26 +28 душно 1013.9 991.0 +18.0
15 14.09 З 4 7000 м дым ясно +32.0 +20.0 49 +38 +51 опасность
солнечного
удара
1013.8 991.0
18 14.09 СЗ 5 7000 м дым ясно +35.7 +20.0 40 +42 +50 опасность
перегрева
1010.9 988.0
21 14.09 СЗ 4 5000 м дым ясно +36.3 +18.7 36 +41 +43 опасность
перегрева
1008.4 985.4 +37.5

 

Местоположение метеостанции Сан-Борха (Боливия): широта -14.86 долгота -66.86 высота над уровнем моря 194 м.

В архиве по умолчанию представлена погода в Сан-Борхе за последнюю неделю. Архивные данные за месяц целиком и за предыдущие месяцы, начиная с января 2011 года, Вы можете получить, выбрав интересующий диапазон дат из раскрывающегося списка и нажав кнопку "Ввод!".


*Определитесь, кто Вы:
робот инопланетянин человек

Внимание! Время в таблицах - всемирное. Для получения местного времени необходимо прибавить поправку, которая равна -4 ч.

Смотрите также архив погоды в соседних городах и на ближайших метеорологических станциях:

Погода в Санта-Розе (Боливия) (77 км)
Погода в Рейесе (Боливия) (83 км)
Погода в Рурренабаке (Боливия) (87 км)
Погода в Сан Игнасио де Moксосе (Боливия) (136 км)
Погода в Санта-Ане (Боливия) (197 км)
Погода в Бауресе (Боливия) (197 км)
Погода в Тринидаде (Боливия) (210 км)
Погода в Овежуйо (Боливия) (224 км)
Погода в Ла-Пасе (Боливия) (232 км)
Погода в Сан-Рамоне (Боливия) (291 км)

Пояснения к столбцам:

Ветер - указаны скорость ветра в м/с - средняя за 10 мин, порывы в срок и между сроками (в фигурных скобках) и направление, откуда дует ветер: С - северный, СВ - северо-восточный, В - восточный, ЮВ - юго-восточный, Ю - южный, ЮЗ - юго-западный, З - западный, СЗ - северо-западный.
Видимость - горизонтальная дальность видимости в метрах или километрах. При видимости от 1 до 10 км при отсутствии осадков обычно наблюдается дымка, при ухудшении видимости до 1 км и менее - туман. В сухую погоду видимость может ухудшаться дымом, пылью или мглою.
Явления - указаны атмосферные явления, наблюдавшиеся в срок или в последний час перед сроком; фигурными скобками обозначены явления, наблюдавшиеся между сроками (за 1-3 часа до срока); квадратными скобками обозначены град или гололедные отложения с указанием их диаметра в мм.
Облачность - указаны через наклонную черту общая и нижняя облачность в баллах и высота нижней границы облаков в метрах; квадратными скобками обозначены формы облаков: Ci - перистые, Cs - перисто-слоистые, Cc - перисто-кучевые, Ac - высококучевые, As - высокослоистые, Sc - слоисто-кучевые, Ns - слоисто-дождевые, Cu - кучевые, Cb - кучево-дождевые. Подробнее классификацию облаков см. в Атласе облаков (PDF).
T - Температура воздуха - температура, измеренная на высоте 2 м над землей.
Td - Температура точки росы - температура, при понижении до которой содержащийся в воздухе водяной пар достигнет насыщения.
f - Относительная влажность воздуха - влажноcть воздуха, измеренная на высоте 2 м над землей.
Te - Эффективная температура - температура, которую ощущает одетый по сезону человек в тени. Характеристика душности погоды. При расчете учитывается влияние влажности воздуха и скорости ветра на теплоощущения человека.
Tes - Эффективная температура на солнце - температура, которую ощущает человек, с поправкой на солнечный нагрев. Характеристика знойности погоды. Зависит от высоты солнца над горизонтом, облачности и скорости ветра. Ночью, в пасмурную погоду, а также при ветре 12 м/с и более поправка равна нулю.
P - Атмосферное давление - приведенное к уровню моря атмосферное давление.
Po - Атмосферное давление - измеренное на уровне метеостанции атмосферное давление.
Tmin - Минимальная температура - минимум температуры воздуха на высоте 2 м над землей.
Tmax - Максимальная температура - максимум температуры воздуха на высоте 2 м над землей.
R - Количество осадков - Количество выпавших осадков за период времени, мм. При наведении курсора мыши на число - период времени, за который выпало указанное количество осадков.
R24 - Количество осадков - Количество выпавших осадков за 24 часа, мм.
S - Снежный покров - Высота снежного покрова, см. При наведении курсора мыши на число - состояние снежного покрова и степень покрытия местности в баллах.